| time (UTC) | temp F | wind direction | speed MPH | gust MPH | rain 1hr in | rain 24hr in | rain mn in | humidity % | barometer mb |
| 20260901103107 | 84 | 132 | 4.0 | 11.0 | 0.00 | 0.00 | 0.00 | 48 | 1022.3 |
| 20260901101601 | 84 | 0 | 1.0 | 8.0 | 0.00 | 0.00 | 0.00 | 47 | 1022.3 |
| 20260901100145 | 83 | 126 | 3.0 | 8.0 | 0.00 | 0.00 | 0.00 | 48 | 1022.3 |
| 20260901094556 | 82 | 5 | 2.0 | 9.0 | 0.00 | 0.00 | 0.00 | 50 | 1022.4 |
| 20260901093054 | 82 | 0 | 1.0 | 5.0 | 0.00 | 0.00 | 0.00 | 54 | 1022.5 |
| 20260901091610 | 81 | 124 | 1.0 | 7.0 | 0.00 | 0.00 | 0.00 | 56 | 1022.5 |
| 20260901084553 | 79 | 109 | 1.0 | 5.0 | 0.00 | 0.00 | 0.00 | 61 | 1022.3 |
| 20260901083106 | 77 | 121 | 1.0 | 5.0 | 0.00 | 0.00 | 0.00 | 63 | 1022.4 |
| 20260901081556 | 76 | 0 | 0.0 | 5.0 | 0.00 | 0.00 | 0.00 | 65 | 1022.2 |
| 20260901074552 | 75 | 104 | 1.0 | 5.0 | 0.00 | 0.00 | 0.00 | 64 | 1022.1 |
| 20260901073050 | 74 | 0 | 1.0 | 3.0 | 0.00 | 0.00 | 0.00 | 67 | 1021.9 |
| 20260901071555 | 73 | 121 | 1.0 | 3.0 | 0.00 | 0.00 | 0.00 | 69 | 1021.9 |
| 20260901070055 | 72 | 0 | 1.0 | 3.0 | 0.00 | 0.00 | 0.00 | 71 | 1021.9 |
| 20260901064607 | 70 | 92 | 0.0 | 3.0 | 0.00 | 0.00 | 0.00 | 73 | 1021.9 |
| 20260901063100 | 69 | 52 | 0.0 | 2.0 | 0.00 | 0.00 | 0.00 | 74 | 1022.0 |
| 20260901061554 | 67 | 51 | 0.0 | 2.0 | 0.00 | 0.00 | 0.00 | 75 | 1022.1 |
| 20260901060100 | 66 | 0 | 0.0 | 2.0 | 0.00 | 0.00 | 0.00 | 75 | 1022.0 |
| 20260901054553 | 66 | 0 | 0.0 | 2.0 | 0.00 | 0.00 | 0.00 | 75 | 1021.9 |
| 20260901053104 | 65 | 0 | 0.0 | 0.0 | 0.00 | 0.00 | 0.00 | 76 | 1021.8 |
| 20260901051603 | 65 | 0 | 0.0 | 0.0 | 0.00 | 0.00 | 0.00 | 76 | 1021.9 |
| 20260901050100 | 65 | 0 | 0.0 | 2.0 | 0.00 | 0.00 | 0.00 | 76 | 1021.7 |
| 20260901044602 | 65 | 0 | 0.0 | 0.0 | 0.00 | 0.00 | 0.00 | 77 | 1021.7 |
| 20260901043105 | 66 | 0 | 0.0 | 1.0 | 0.00 | 0.00 | 0.00 | 76 | 1021.7 |
| 20260901041557 | 66 | 0 | 0.0 | 1.0 | 0.00 | 0.00 | 0.00 | 74 | 1021.6 |
| 20260901034603 | 66 | 0 | 0.0 | 1.0 | 0.00 | 0.00 | 0.00 | 73 | 1021.5 |
| 20260901033100 | 66 | 0 | 1.0 | 3.0 | 0.00 | 0.00 | 0.00 | 70 | 1021.5 |
| 20260901031600 | 66 | 0 | 0.0 | 3.0 | 0.00 | 0.00 | 0.00 | 71 | 1021.4 |
| 20260901030058 | 66 | 0 | 0.0 | 2.0 | 0.00 | 0.00 | 0.00 | 72 | 1021.4 |
| 20260901024554 | 66 | 18 | 0.0 | 2.0 | 0.00 | 0.00 | 0.00 | 72 | 1021.4 |
| 20260901023102 | 67 | 0 | 0.0 | 3.0 | 0.00 | 0.00 | 0.00 | 75 | 1021.3 |
| 20260901021601 | 67 | 0 | 1.0 | 3.0 | 0.00 | 0.00 | 0.00 | 74 | 1021.1 |
| 20260901014559 | 67 | 360 | 2.0 | 5.0 | 0.00 | 0.00 | 0.00 | 77 | 1021.1 |
| 20260901013118 | 67 | 360 | 3.0 | 6.0 | 0.00 | 0.00 | 0.00 | 74 | 1021.2 |
| 20260901011556 | 67 | 0 | 1.0 | 3.0 | 0.00 | 0.00 | 0.00 | 73 | 1021.3 |
| 20260901010110 | 68 | 360 | 3.0 | 6.0 | 0.00 | 0.00 | 0.00 | 73 | 1021.2 |
| 20260901004557 | 68 | 360 | 1.0 | 4.0 | 0.00 | 0.00 | 0.00 | 67 | 1021.1 |
| 20260901003054 | 68 | 360 | 0.0 | 3.0 | 0.00 | 0.00 | 0.00 | 68 | 1021.0 |
| 20260901001601 | 68 | 0 | 0.0 | 2.0 | 0.00 | 0.00 | 0.00 | 66 | 1020.9 |
| 20260831234630 | 68 | 0 | 0.0 | 1.0 | 0.00 | 0.00 | 0.00 | 69 | 1021.0 |
| 20260831233100 | 69 | 0 | 0.0 | 2.0 | 0.00 | 0.00 | 0.00 | 68 | 1021.1 |
| 20260831231554 | 69 | 0 | 0.0 | 1.0 | 0.00 | 0.00 | 0.00 | 67 | 1021.1 |
| 20260831230052 | 70 | 360 | 1.0 | 3.0 | 0.00 | 0.00 | 0.00 | 68 | 1021.0 |
| 20260831224602 | 70 | 360 | 1.0 | 4.0 | 0.00 | 0.00 | 0.00 | 67 | 1021.0 |
| 20260831223104 | 70 | 0 | 0.0 | 2.0 | 0.00 | 0.00 | 0.00 | 62 | 1020.9 |
| 20260831221556 | 70 | 360 | 2.0 | 4.0 | 0.00 | 0.00 | 0.00 | 61 | 1020.8 |
| 20260831220104 | 70 | 360 | 2.0 | 5.0 | 0.00 | 0.00 | 0.00 | 63 | 1020.6 |
| 20260831214623 | 71 | 360 | 0.0 | 3.0 | 0.00 | 0.00 | 0.00 | 65 | 1020.6 |
| 20260831213107 | 70 | 360 | 0.0 | 3.0 | 0.00 | 0.00 | 0.00 | 58 | 1020.5 |
| 20260831211605 | 71 | 0 | 0.0 | 3.0 | 0.00 | 0.00 | 0.00 | 58 | 1020.3 |
| 20260831210104 | 71 | 360 | 1.0 | 3.0 | 0.00 | 0.00 | 0.00 | 63 | 1020.2 |
| 20260831204608 | 71 | 360 | 2.0 | 4.0 | 0.00 | 0.00 | 0.00 | 62 | 1020.1 |
| 20260831203103 | 72 | 360 | 1.0 | 5.0 | 0.00 | 0.00 | 0.00 | 65 | 1019.9 |
| 20260831201622 | 72 | 360 | 2.0 | 4.0 | 0.00 | 0.00 | 0.00 | 64 | 1019.8 |
| 20260831200106 | 72 | 360 | 1.0 | 4.0 | 0.00 | 0.00 | 0.00 | 64 | 1019.6 |
| 20260831194607 | 72 | 360 | 2.0 | 6.0 | 0.00 | 0.00 | 0.00 | 62 | 1019.7 |
| 20260831193131 | 72 | 331 | 2.0 | 5.0 | 0.00 | 0.00 | 0.00 | 64 | 1019.6 |
| 20260831191602 | 73 | 330 | 3.0 | 6.0 | 0.00 | 0.00 | 0.00 | 64 | 1019.7 |
| 20260831190104 | 73 | 344 | 1.0 | 5.0 | 0.00 | 0.00 | 0.00 | 66 | 1019.7 |
| 20260831184553 | 73 | 330 | 2.0 | 5.0 | 0.00 | 0.00 | 0.00 | 63 | 1019.5 |
| 20260831183105 | 73 | 336 | 3.0 | 5.0 | 0.00 | 0.00 | 0.00 | 67 | 1019.4 |
| 20260831181612 | 74 | 326 | 3.0 | 6.0 | 0.00 | 0.00 | 0.00 | 65 | 1019.3 |
| 20260831180108 | 75 | 17 | 1.0 | 3.0 | 0.00 | 0.00 | 0.00 | 66 | 1019.1 |
| 20260831174559 | 75 | 325 | 2.0 | 4.0 | 0.00 | 0.00 | 0.00 | 65 | 1019.1 |
| 20260831173105 | 76 | 360 | 3.0 | 6.0 | 0.00 | 0.00 | 0.00 | 66 | 1019.0 |
| 20260831171604 | 77 | 329 | 2.0 | 4.0 | 0.00 | 0.00 | 0.00 | 65 | 1019.1 |
| 20260831170119 | 79 | 329 | 2.0 | 4.0 | 0.00 | 0.00 | 0.00 | 63 | 1019.2 |
| 20260831164611 | 80 | 0 | 0.0 | 2.0 | 0.00 | 0.00 | 0.00 | 60 | 1019.2 |
| 20260831163103 | 81 | 0 | 0.0 | 1.0 | 0.00 | 0.00 | 0.00 | 59 | 1019.2 |
| 20260831161611 | 82 | 0 | 0.0 | 4.0 | 0.00 | 0.00 | 0.00 | 58 | 1019.3 |
| 20260831160110 | 83 | 150 | 1.0 | 4.0 | 0.00 | 0.00 | 0.00 | 56 | 1019.4 |
| 20260831154624 | 84 | 101 | 1.0 | 3.0 | 0.00 | 0.00 | 0.00 | 56 | 1019.5 |
| 20260831153059 | 85 | 124 | 1.0 | 5.0 | 0.00 | 0.00 | 0.00 | 55 | 1019.6 |
| 20260831151553 | 84 | 118 | 1.0 | 7.0 | 0.00 | 0.00 | 0.00 | 56 | 1019.6 |
| 20260831150106 | 84 | 112 | 3.0 | 9.0 | 0.00 | 0.00 | 0.00 | 56 | 1019.6 |
| 20260831144604 | 84 | 115 | 1.0 | 9.0 | 0.00 | 0.00 | 0.00 | 55 | 1019.6 |
| 20260831143055 | 84 | 92 | 3.0 | 9.0 | 0.00 | 0.00 | 0.00 | 56 | 1019.7 |
| 20260831141606 | 84 | 96 | 3.0 | 10.0 | 0.00 | 0.00 | 0.00 | 57 | 1019.6 |
| 20260831140054 | 84 | 11 | 3.0 | 11.0 | 0.00 | 0.00 | 0.00 | 56 | 1019.7 |
| 20260831134604 | 84 | 147 | 5.0 | 11.0 | 0.00 | 0.00 | 0.00 | 54 | 1019.7 |
| 20260831133101 | 84 | 140 | 5.0 | 14.0 | 0.00 | 0.00 | 0.00 | 54 | 1019.7 |
| 20260831131603 | 84 | 125 | 6.0 | 11.0 | 0.00 | 0.00 | 0.00 | 52 | 1019.8 |
| 20260831130109 | 85 | 92 | 4.0 | 11.0 | 0.00 | 0.00 | 0.00 | 51 | 1019.9 |
| 20260831124600 | 85 | 132 | 5.0 | 11.0 | 0.00 | 0.00 | 0.00 | 47 | 1019.9 |
| 20260831123058 | 85 | 143 | 3.0 | 11.0 | 0.00 | 0.00 | 0.00 | 48 | 1019.9 |
| 20260831121559 | 85 | 132 | 5.0 | 12.0 | 0.00 | 0.00 | 0.00 | 46 | 1019.9 |
| 20260831120057 | 86 | 128 | 4.0 | 11.0 | 0.00 | 0.00 | 0.00 | 46 | 1020.0 |
| 20260831114606 | 86 | 128 | 5.0 | 11.0 | 0.00 | 0.00 | 0.00 | 45 | 1019.9 |
| 20260831113057 | 86 | 0 | 2.0 | 9.0 | 0.00 | 0.00 | 0.00 | 42 | 1019.9 |
| 20260831111605 | 86 | 108 | 2.0 | 8.0 | 0.00 | 0.00 | 0.00 | 42 | 1020.0 |
| 20260831110058 | 86 | 163 | 4.0 | 11.0 | 0.00 | 0.00 | 0.00 | 41 | 1020.1 |
| 20260831104556 | 86 | 220 | 1.0 | 7.0 | 0.00 | 0.00 | 0.00 | 42 | 1020.0 |